Time,TemperatureF,DewpointF,PressureIn,WindDirection,WindDirectionDegrees,WindSpeedMPH,WindSpeedGustMPH,Humidity,HourlyPrecipIn,Conditions,Clouds,dailyrainin,SoftwareType,DateUTC
2014-10-25 00:10:00,58.3,44.0,29.85,SSE,159,2.0,-999.0,60,-99.99,,,0.00,weatherlink.com 1.10,2014-10-25 07:10:00,
2014-10-25 00:25:00,58.0,44.0,29.85,SSE,168,3.0,-999.0,61,-99.99,,,0.00,weatherlink.com 1.10,2014-10-25 07:25:00,
2014-10-25 00:40:00,58.0,44.0,29.86,South,185,1.0,-999.0,61,-99.99,,,0.00,weatherlink.com 1.10,2014-10-25 07:40:00,
2014-10-25 00:55:00,55.3,45.0,29.88,West,269,0.0,-999.0,69,-99.99,,,0.00,weatherlink.com 1.10,2014-10-25 07:55:00,
2014-10-25 01:10:00,52.1,46.0,29.88,WSW,252,0.0,-999.0,81,-99.99,,,0.00,weatherlink.com 1.10,2014-10-25 08:10:00,
2014-10-25 01:25:00,51.0,47.0,29.88,WSW,251,0.0,-999.0,85,-99.99,,,0.00,weatherlink.com 1.10,2014-10-25 08:25:00,
2014-10-25 01:40:00,50.6,47.0,29.87,SSW,203,1.0,-999.0,87,-99.99,,,0.00,weatherlink.com 1.10,2014-10-25 08:40:00,
2014-10-25 01:55:00,50.5,47.0,29.87,South,171,0.0,-999.0,88,-99.99,,,0.00,weatherlink.com 1.10,2014-10-25 08:55:00,
2014-10-25 02:10:00,50.0,47.0,29.86,SSE,167,0.0,-999.0,90,-99.99,,,0.00,weatherlink.com 1.10,2014-10-25 09:10:00,
2014-10-25 02:25:00,49.9,47.0,29.87,SSE,167,0.0,-999.0,90,-99.99,,,0.00,weatherlink.com 1.10,2014-10-25 09:25:00,
2014-10-25 02:40:00,49.7,47.0,29.88,SSE,167,0.0,-999.0,91,-99.99,,,0.00,weatherlink.com 1.10,2014-10-25 09:40:00,
2014-10-25 02:55:00,49.7,47.0,29.89,South,175,0.0,-999.0,91,-99.99,,,0.00,weatherlink.com 1.10,2014-10-25 09:55:00,
2014-10-25 03:10:00,49.6,47.0,29.89,South,175,0.0,-999.0,91,-99.99,,,0.00,weatherlink.com 1.10,2014-10-25 10:10:00,
2014-10-25 03:25:00,49.5,47.0,29.89,South,175,0.0,-999.0,92,-99.99,,,0.00,weatherlink.com 1.10,2014-10-25 10:25:00,
2014-10-25 03:40:00,49.6,47.0,29.89,South,175,0.0,-999.0,92,-99.99,,,0.00,weatherlink.com 1.10,2014-10-25 10:40:00,
2014-10-25 03:55:00,49.6,47.0,29.88,South,175,0.0,-999.0,92,-99.99,,,0.00,weatherlink.com 1.10,2014-10-25 10:55:00,
2014-10-25 04:10:00,49.5,47.0,29.87,South,175,0.0,-999.0,92,-99.99,,,0.00,weatherlink.com 1.10,2014-10-25 11:10:00,
2014-10-25 04:25:00,49.4,47.0,29.86,South,175,0.0,-999.0,91,-99.99,,,0.00,weatherlink.com 1.10,2014-10-25 11:25:00,
2014-10-25 04:40:00,49.2,47.0,29.85,South,174,0.0,-999.0,91,-99.99,,,0.00,weatherlink.com 1.10,2014-10-25 11:40:00,
2014-10-25 04:55:00,49.1,47.0,29.86,South,171,0.0,-999.0,91,-99.99,,,0.00,weatherlink.com 1.10,2014-10-25 11:55:00,
2014-10-25 05:10:00,49.0,47.0,29.87,South,171,0.0,-999.0,91,-99.99,,,0.00,weatherlink.com 1.10,2014-10-25 12:10:00,
2014-10-25 05:25:00,49.0,47.0,29.88,South,170,0.0,-999.0,91,-99.99,,,0.00,weatherlink.com 1.10,2014-10-25 12:25:00,
2014-10-25 05:40:00,49.4,47.0,29.87,South,170,0.0,-999.0,91,-99.99,,,0.00,weatherlink.com 1.10,2014-10-25 12:40:00,
2014-10-25 05:55:00,49.6,47.0,29.87,SSE,163,0.0,-999.0,90,-99.99,,,0.00,weatherlink.com 1.10,2014-10-25 12:55:00,
2014-10-25 06:10:00,49.6,47.0,29.88,SSE,163,0.0,-999.0,89,-99.99,,,0.00,weatherlink.com 1.10,2014-10-25 13:10:00,
2014-10-25 06:25:00,49.3,47.0,29.87,SSE,163,0.0,-999.0,90,-99.99,,,0.00,weatherlink.com 1.10,2014-10-25 13:25:00,
2014-10-25 06:55:00,49.9,46.0,29.86,SSE,163,0.0,-999.0,85,-99.99,,,0.00,weatherlink.com 1.10,2014-10-25 13:55:00,
2014-10-25 07:10:00,50.0,45.0,29.85,SSE,157,0.0,-999.0,82,-99.99,,,0.00,weatherlink.com 1.10,2014-10-25 14:10:00,
2014-10-25 07:25:00,50.3,45.0,29.86,SSE,157,1.0,-999.0,83,-99.99,,,0.01,weatherlink.com 1.10,2014-10-25 14:25:00,
2014-10-25 07:40:00,48.5,46.0,29.86,SE,144,0.0,-999.0,90,-99.99,,,0.04,weatherlink.com 1.10,2014-10-25 14:40:00,
2014-10-25 07:55:00,47.6,45.0,29.86,SE,138,0.0,-999.0,91,-99.99,,,0.05,weatherlink.com 1.10,2014-10-25 14:55:00,
2014-10-25 08:10:00,47.6,46.0,29.88,SSE,168,0.0,-999.0,93,-99.99,,,0.09,weatherlink.com 1.10,2014-10-25 15:10:00,
2014-10-25 08:25:00,47.3,45.0,29.89,SSE,158,2.0,-999.0,93,-99.99,,,0.11,weatherlink.com 1.10,2014-10-25 15:25:00,
2014-10-25 08:40:00,47.3,46.0,29.90,SSE,154,0.0,-999.0,94,-99.99,,,0.13,weatherlink.com 1.10,2014-10-25 15:40:00,
2014-10-25 08:55:00,47.4,46.0,29.92,South,175,0.0,-999.0,94,-99.99,,,0.16,weatherlink.com 1.10,2014-10-25 15:55:00,
2014-10-25 09:10:00,47.5,46.0,29.93,SSE,148,0.0,-999.0,94,-99.99,,,0.21,weatherlink.com 1.10,2014-10-25 16:10:00,
2014-10-25 09:25:00,47.7,46.0,29.94,SSE,148,0.0,-999.0,95,-99.99,,,0.29,weatherlink.com 1.10,2014-10-25 16:25:00,
2014-10-25 09:40:00,47.1,46.0,29.94,South,173,0.0,-999.0,94,-99.99,,,0.33,weatherlink.com 1.10,2014-10-25 16:40:00,
2014-10-25 09:55:00,47.0,46.0,29.95,South,176,0.0,-999.0,95,-99.99,,,0.38,weatherlink.com 1.10,2014-10-25 16:55:00,
2014-10-25 10:10:00,46.9,45.0,29.95,SSW,209,0.0,-999.0,94,-99.99,,,0.41,weatherlink.com 1.10,2014-10-25 17:10:00,
2014-10-25 10:25:00,46.4,45.0,29.95,South,190,0.0,-999.0,94,-99.99,,,0.45,weatherlink.com 1.10,2014-10-25 17:25:00,
2014-10-25 10:40:00,46.2,45.0,29.97,South,191,0.0,-999.0,95,-99.99,,,0.51,weatherlink.com 1.10,2014-10-25 17:40:00,
2014-10-25 10:55:00,44.9,43.0,29.96,SSW,202,0.0,-999.0,94,-99.99,,,0.57,weatherlink.com 1.10,2014-10-25 17:55:00,
2014-10-25 11:10:00,44.8,44.0,29.98,SSE,152,1.0,-999.0,95,-99.99,,,0.61,weatherlink.com 1.10,2014-10-25 18:10:00,
2014-10-25 11:25:00,45.1,44.0,29.98,SE,136,0.0,-999.0,95,-99.99,,,0.62,weatherlink.com 1.10,2014-10-25 18:25:00,
2014-10-25 11:40:00,45.4,44.0,29.97,SE,136,0.0,-999.0,95,-99.99,,,0.63,weatherlink.com 1.10,2014-10-25 18:40:00,
2014-10-25 11:55:00,45.5,44.0,29.98,SE,144,0.0,-999.0,95,-99.99,,,0.64,weatherlink.com 1.10,2014-10-25 18:55:00,
2014-10-25 12:10:00,45.8,45.0,29.98,SE,144,0.0,-999.0,95,-99.99,,,0.65,weatherlink.com 1.10,2014-10-25 19:10:00,
2014-10-25 12:25:00,46.4,45.0,30.00,SSE,157,0.0,-999.0,95,-99.99,,,0.65,weatherlink.com 1.10,2014-10-25 19:25:00,
2014-10-25 12:40:00,47.2,46.0,30.00,South,180,0.0,-999.0,96,-99.99,,,0.65,weatherlink.com 1.10,2014-10-25 19:40:00,
2014-10-25 12:55:00,47.3,46.0,30.00,South,176,0.0,-999.0,96,-99.99,,,0.65,weatherlink.com 1.10,2014-10-25 19:55:00,
2014-10-25 13:10:00,47.7,47.0,29.99,South,176,0.0,-999.0,96,-99.99,,,0.65,weatherlink.com 1.10,2014-10-25 20:10:00,
2014-10-25 13:25:00,47.2,46.0,30.00,South,176,0.0,-999.0,95,-99.99,,,0.65,weatherlink.com 1.10,2014-10-25 20:25:00,
2014-10-25 13:40:00,47.4,46.0,30.01,South,176,0.0,-999.0,96,-99.99,,,0.65,weatherlink.com 1.10,2014-10-25 20:40:00,
2014-10-25 13:55:00,47.3,46.0,30.01,South,176,0.0,-999.0,96,-99.99,,,0.65,weatherlink.com 1.10,2014-10-25 20:55:00,
2014-10-25 14:10:00,47.4,46.0,30.02,South,172,0.0,-999.0,96,-99.99,,,0.67,weatherlink.com 1.10,2014-10-25 21:10:00,
2014-10-25 14:25:00,47.8,47.0,30.02,South,175,0.0,-999.0,96,-99.99,,,0.67,weatherlink.com 1.10,2014-10-25 21:25:00,
2014-10-25 14:40:00,48.1,47.0,30.02,South,174,0.0,-999.0,96,-99.99,,,0.67,weatherlink.com 1.10,2014-10-25 21:40:00,
2014-10-25 14:55:00,47.9,47.0,30.02,SE,146,0.0,-999.0,96,-99.99,,,0.67,weatherlink.com 1.10,2014-10-25 21:55:00,
2014-10-25 15:10:00,48.3,47.0,30.02,SE,146,0.0,-999.0,96,-99.99,,,0.67,weatherlink.com 1.10,2014-10-25 22:10:00,
2014-10-25 15:25:00,48.5,48.0,30.02,South,174,0.0,-999.0,96,-99.99,,,0.67,weatherlink.com 1.10,2014-10-25 22:25:00,
2014-10-25 15:40:00,48.8,48.0,30.01,South,174,0.0,-999.0,96,-99.99,,,0.67,weatherlink.com 1.10,2014-10-25 22:40:00,
2014-10-25 15:55:00,48.8,48.0,30.00,South,169,0.0,-999.0,96,-99.99,,,0.67,weatherlink.com 1.10,2014-10-25 22:55:00,
2014-10-25 16:10:00,49.1,48.0,30.01,South,181,0.0,-999.0,96,-99.99,,,0.67,weatherlink.com 1.10,2014-10-25 23:10:00,
2014-10-25 16:25:00,49.0,48.0,30.01,SSE,164,0.0,-999.0,96,-99.99,,,0.67,weatherlink.com 1.10,2014-10-25 23:25:00,
2014-10-25 16:40:00,48.8,48.0,30.01,SE,140,0.0,-999.0,96,-99.99,,,0.67,weatherlink.com 1.10,2014-10-25 23:40:00,
2014-10-25 16:55:00,48.7,48.0,30.01,SSE,156,0.0,-999.0,96,-99.99,,,0.67,weatherlink.com 1.10,2014-10-25 23:55:00,
2014-10-25 17:10:00,48.8,48.0,30.02,South,171,0.0,-999.0,96,-99.99,,,0.67,weatherlink.com 1.10,2014-10-26 00:10:00,
2014-10-25 17:25:00,48.7,48.0,30.02,SSE,153,0.0,-999.0,96,-99.99,,,0.67,weatherlink.com 1.10,2014-10-26 00:25:00,
2014-10-25 17:40:00,48.6,48.0,30.02,SSE,154,0.0,-999.0,96,-99.99,,,0.67,weatherlink.com 1.10,2014-10-26 00:40:00,
2014-10-25 17:55:00,48.4,47.0,30.02,SSE,153,0.0,-999.0,96,-99.99,,,0.67,weatherlink.com 1.10,2014-10-26 00:55:00,
2014-10-25 18:10:00,48.4,47.0,30.02,SSE,156,0.0,-999.0,96,-99.99,,,0.67,weatherlink.com 1.10,2014-10-26 01:10:00,
2014-10-25 18:25:00,48.2,47.0,30.02,SSE,157,0.0,-999.0,96,-99.99,,,0.67,weatherlink.com 1.10,2014-10-26 01:25:00,
2014-10-25 18:40:00,48.1,47.0,30.02,SSE,158,0.0,-999.0,96,-99.99,,,0.67,weatherlink.com 1.10,2014-10-26 01:40:00,
2014-10-25 18:55:00,48.1,47.0,30.02,SSE,158,0.0,-999.0,96,-99.99,,,0.67,weatherlink.com 1.10,2014-10-26 01:55:00,